[[{"header":{"parameterUnit":"m.s-1","parameterCategory":2,"la1":30.2991,"la2":30.254,"lo1":-89.0895,"lo2":-89.0444,"dy":0.0017,"dx":0.0017,"nx":28,"ny":28,"refTime":"2024-12-18T03:00:00:Z","depth":"0","parameterNumber":2,"parameterNumberName":"U-component_of_CURRENTS"},"data":[0,0,0,0,0,0,0,0,0,0,0,0,0,0,0,0,0,0,0,0,0,0,0,0,0,0,0,0,0,0,0,0,0,0,0,0,0,0,0,0,0,0,0,0,0,0,0,0,0,0,0,0,0,0,0,0,0,0,-0.2978,-0.2978,0,-0.2894,-0.2893,-0.2892,-0.2826,-0.2825,-0.2825,-0.2825,-0.2624,-0.2619,-0.2614,0,0,0,0,0,0,0,0,0,0,0,0,0,-0.2986,-0.2986,-0.2978,-0.2978,-0.2977,-0.2894,-0.2893,-0.2891,-0.2826,-0.2825,-0.2825,-0.2825,-0.2626,-0.262,-0.2613,0,0,0,0,0,0,0,0,0,0,0,0,0,-0.2947,-0.2986,-0.2978,-0.2937,-0.2933,-0.2895,-0.2893,-0.2891,-0.2826,-0.2825,-0.2825,-0.2825,-0.2628,-0.262,-0.2613,-0.2574,0,0,-0.2589,-0.2586,0,0,0,0,0,0,0,0,-0.2949,-0.2946,-0.2944,-0.294,-0.2935,-0.2873,-0.2822,-0.278,-0.2826,-0.2862,-0.2825,-0.2824,-0.2699,-0.2686,-0.2667,-0.2564,-0.2556,-0.2589,-0.2584,-0.2581,-0.2579,0,0,0,0,0,0,0,-0.2952,-0.2949,-0.2941,-0.2943,-0.2938,-0.289,-0.2884,-0.2813,-0.2779,-0.2859,-0.2855,-0.2852,-0.2696,-0.2675,-0.2661,-0.2553,-0.2589,-0.2582,-0.2577,-0.2574,-0.2406,-0.2406,0,0,0,0,0,0,-0.2976,-0.2952,-0.2944,-0.2939,-0.2946,-0.2891,-0.2884,-0.289,-0.2782,-0.2767,-0.2853,-0.285,-0.2688,-0.2671,-0.2654,-0.2593,-0.2581,-0.2574,-0.2569,-0.2406,-0.2406,-0.2406,0,0,0,0,0,0,-0.2977,-0.2976,-0.2947,-0.2946,-0.2939,-0.2892,-0.2899,-0.2889,-0.2859,-0.2779,-0.2761,-0.2833,-0.2687,-0.2665,-0.2591,-0.2585,-0.257,-0.2563,-0.2406,-0.2406,-0.2406,-0.2476,0,0,0,0,0,0,-0.2977,-0.2977,-0.2976,-0.2948,-0.294,-0.2924,-0.2899,-0.2888,-0.2861,-0.2855,-0.2756,-0.2738,-0.2685,-0.2603,-0.2584,-0.2574,-0.2557,-0.2406,-0.2406,-0.2406,-0.2473,-0.2478,-0.2482,0,0,0,0,0,-0.2978,-0.2947,-0.2976,-0.2974,-0.2945,-0.2924,-0.2915,-0.2877,-0.2861,-0.2848,-0.2786,-0.2741,-0.2591,-0.2597,-0.2574,-0.2562,-0.2406,-0.2406,-0.2406,-0.2471,-0.2477,-0.2482,0,0,0,0,0,0,-0.2914,-0.2938,-0.2968,-0.2941,-0.295,-0.2915,-0.2879,-0.2876,-0.2818,-0.2803,-0.2731,-0.2708,-0.2644,-0.2595,-0.2603,-0.2517,-0.2494,-0.249,-0.2552,-0.2556,-0.2561,-0.2543,-0.2551,0,0,0,0,0,-0.2919,-0.2918,-0.2943,-0.292,-0.2925,-0.2914,-0.2895,-0.2889,-0.2844,-0.2818,-0.2754,-0.2686,-0.2629,-0.2587,-0.2526,-0.2469,-0.2421,-0.2451,-0.2455,-0.246,-0.2431,-0.2374,-0.2371,-0.2407,-0.2407,-0.2407,0,0,-0.2883,-0.2898,-0.2894,-0.2911,-0.2904,-0.29,-0.2898,-0.2874,-0.2862,-0.2802,-0.2735,-0.2692,-0.2618,-0.2563,-0.253,-0.2518,-0.243,-0.246,-0.2464,-0.2432,-0.2374,-0.2371,-0.2367,-0.2407,-0.2407,-0.2407,0,0,-0.2799,-0.2838,-0.2811,-0.2831,-0.2848,-0.2865,-0.2867,-0.2853,-0.2838,-0.28,-0.2754,-0.2706,-0.2615,-0.2564,-0.2527,-0.2515,-0.2458,-0.2508,-0.2507,-0.2455,-0.2451,-0.2447,-0.241,-0.2402,-0.2509,-0.2509,-0.2509,0,-0.2748,-0.2745,-0.2795,-0.2782,-0.2792,-0.2855,-0.2838,-0.2839,-0.2802,-0.2788,-0.2784,-0.2667,-0.2611,-0.2541,-0.2543,-0.2522,-0.249,-0.2497,-0.2461,-0.2456,-0.245,-0.2412,-0.2402,-0.2513,-0.2512,-0.2512,-0.2512,0,-0.2669,-0.2667,-0.2646,-0.2684,-0.2707,-0.2699,-0.2752,-0.2759,-0.2773,-0.2774,-0.2723,-0.2664,-0.2594,-0.2586,-0.2554,-0.2495,-0.2486,-0.2478,-0.2449,-0.2451,-0.2411,-0.24,-0.2518,-0.2516,-0.2515,-0.2514,0,0,-0.254,-0.2582,-0.2576,-0.2595,-0.2664,-0.2676,-0.2691,-0.2721,-0.2718,-0.2711,-0.2671,-0.2612,-0.2605,-0.2561,-0.253,-0.2486,-0.2439,-0.2468,-0.2464,-0.2433,-0.2333,-0.2128,-0.2096,-0.2432,-0.2429,-0.2428,-0.2331,0,-0.246,-0.2426,-0.2483,-0.2479,-0.2479,-0.2575,-0.2587,-0.2633,-0.2665,-0.2647,-0.263,-0.2582,-0.2593,-0.256,-0.2524,-0.2449,-0.2406,-0.2465,-0.233,-0.2325,-0.2145,-0.2073,-0.1878,-0.1756,-0.2319,-0.2317,-0.2316,0,-0.2365,-0.237,-0.2336,-0.2405,-0.2415,-0.2435,-0.2509,-0.2537,-0.2568,-0.258,-0.257,-0.2552,-0.2493,-0.2499,-0.2393,-0.2435,-0.2378,-0.2333,-0.2329,-0.2091,-0.2095,-0.1837,-0.1713,-0.1645,-0.2297,-0.2299,-0.23,0,-0.2263,-0.2274,-0.2254,-0.2272,-0.2349,-0.2363,-0.2434,-0.2498,-0.2531,-0.2539,-0.2534,-0.2492,-0.2448,-0.2387,-0.2304,-0.2347,-0.217,-0.2222,-0.1991,-0.1979,-0.1752,-0.172,-0.1532,-0.2124,-0.2124,-0.2124,-0.2124,0,-0.2165,-0.2148,-0.2203,-0.2194,-0.2219,-0.2299,-0.234,-0.2402,-0.2449,-0.246,-0.2491,-0.244,-0.2414,-0.2322,-0.2269,-0.2062,-0.2145,-0.1941,-0.191,-0.1772,-0.1745,-0.1625,-0.1701,-0.212,-0.2121,-0.2122,-0.2123,0,-0.2041,-0.2069,-0.2057,-0.2122,-0.2166,-0.2188,-0.2334,-0.2359,-0.241,-0.2413,-0.2407,-0.2388,-0.2244,-0.2186,-0.2053,-0.1976,-0.1753,-0.1739,-0.1576,-0.1522,-0.1216,-0.1305,-0.1166,-0.1149,-0.1461,-0.1455,-0.145,0,-0.1958,-0.1929,-0.2006,-0.2049,-0.2082,-0.2158,-0.2226,-0.2334,-0.2368,-0.2356,-0.2328,-0.2197,-0.2028,-0.1763,-0.1597,-0.1408,-0.1503,-0.1153,-0.1169,-0.1106,-0.1186,-0.1337,-0.135,-0.0938,-0.0929,-0.0922,-0.0916,0,-0.1815,-0.1839,-0.1862,-0.195,-0.202,-0.2107,-0.2202,-0.2208,-0.2287,-0.2225,-0.2069,-0.1901,-0.1623,-0.1239,-0.101,-0.0947,-0.1083,-0.0991,-0.0963,-0.075,-0.0865,-0.0864,-0.1141,-0.0851,-0.0858,-0.0862,-0.0866,-0.0869,-0.1714,-0.171,-0.1763,-0.1844,-0.1937,-0.1996,-0.1964,-0.1998,-0.1944,-0.1713,-0.1722,-0.1298,-0.0892,-0.0483,-0.0496,-0.0309,-0.0572,-0.0241,-0.0359,-0.0521,-0.046,-0.057,-0.0213,-0.0216,-0.0218,-0.022,-0.0222,0,-0.1573,-0.1614,-0.1679,-0.1751,-0.1782,-0.1878,-0.1893,-0.1756,-0.1537,-0.1305,-0.1022,-0.0379,0.0037,0.0199,0.047,0.0417,0.0165,0.0291,0.0099,0.0049,-0.0019,0.006,0.0543,0.0542,0.0542,0.0542,0.0542,0.0542,-0.151,-0.1507,-0.1548,-0.1557,-0.1605,-0.15,-0.1427,-0.1211,-0.0979,-0.0411,0.0034,0.0299,0.0592,0.0928,0.0988,0.0842,0.0573,0.0505,0.0322,0.0279,0.0217,0.0158,0.0224,0.0733,0.0733,0.046,0.0458,0.0456]},{"header":{"parameterUnit":"m.s-1","parameterCategory":2,"la1":30.2991,"la2":30.254,"lo1":-89.0895,"lo2":-89.0444,"dy":0.0017,"dx":0.0017,"nx":28,"ny":28,"refTime":"2024-12-18T03:00:00:Z","depth":"0","parameterNumber":3,"parameterNumberName":"V-component_of_CURRENTS"},"data":[0,0,0,0,0,0,0,0,0,0,0,0,0,0,0,0,0,0,0,0,0,0,0,0,0,0,0,0,0,0,0,0,0,0,0,0,0,0,0,0,0,0,0,0,0,0,0,0,0,0,0,0,0,0,0,0,0,0,-0.0869,-0.0868,0,-0.0745,-0.0744,-0.0742,-0.0694,-0.0695,-0.0695,-0.0696,-0.0519,-0.0514,-0.0509,0,0,0,0,0,0,0,0,0,0,0,0,0,-0.0983,-0.0982,-0.087,-0.0868,-0.0867,-0.0746,-0.0744,-0.0742,-0.0694,-0.0695,-0.0696,-0.0696,-0.0521,-0.0515,-0.0508,0,0,0,0,0,0,0,0,0,0,0,0,0,-0.0902,-0.0981,-0.087,-0.083,-0.0825,-0.0746,-0.0744,-0.0741,-0.0694,-0.0695,-0.0696,-0.0696,-0.0523,-0.0515,-0.0508,-0.0443,0,0,-0.0484,-0.048,0,0,0,0,0,0,0,0,-0.0907,-0.0898,-0.0837,-0.0833,-0.0827,-0.0738,-0.0719,-0.064,-0.0694,-0.0742,-0.0696,-0.0697,-0.0588,-0.0575,-0.0548,-0.0435,-0.0427,-0.0483,-0.0478,-0.0475,-0.0473,0,0,0,0,0,0,0,-0.0913,-0.0902,-0.0818,-0.0836,-0.083,-0.079,-0.078,-0.0703,-0.0659,-0.0738,-0.0734,-0.0723,-0.0585,-0.0555,-0.0543,-0.0425,-0.0483,-0.0476,-0.0471,-0.0468,-0.0361,-0.0363,0,0,0,0,0,0,-0.0935,-0.0908,-0.0822,-0.0815,-0.0872,-0.0788,-0.0776,-0.0764,-0.0661,-0.0647,-0.0723,-0.0722,-0.0568,-0.0552,-0.0537,-0.0533,-0.0475,-0.0468,-0.0463,-0.036,-0.0362,-0.0364,0,0,0,0,0,0,-0.0938,-0.0929,-0.0827,-0.086,-0.0845,-0.0786,-0.0772,-0.0761,-0.0738,-0.0651,-0.0636,-0.0712,-0.0568,-0.0548,-0.0494,-0.0523,-0.0464,-0.0457,-0.0357,-0.036,-0.0363,-0.0475,0,0,0,0,0,0,-0.0942,-0.093,-0.0921,-0.0862,-0.0844,-0.0803,-0.0771,-0.0758,-0.073,-0.0728,-0.0635,-0.062,-0.0567,-0.0506,-0.0486,-0.0511,-0.0451,-0.0355,-0.0359,-0.0362,-0.0469,-0.0481,-0.0491,0,0,0,0,0,-0.0946,-0.0927,-0.0921,-0.0911,-0.0836,-0.0803,-0.0791,-0.0749,-0.0729,-0.0728,-0.0672,-0.0623,-0.0515,-0.05,-0.0476,-0.05,-0.0353,-0.0358,-0.0362,-0.0463,-0.0478,-0.0491,0,0,0,0,0,0,-0.0957,-0.0919,-0.0911,-0.0879,-0.0858,-0.0797,-0.0776,-0.0753,-0.0704,-0.0693,-0.062,-0.06,-0.0571,-0.0519,-0.0505,-0.0486,-0.0436,-0.0435,-0.0522,-0.0535,-0.0546,-0.0598,-0.0444,0,0,0,0,0,-0.0961,-0.0948,-0.0911,-0.0889,-0.0877,-0.0829,-0.0806,-0.0784,-0.0736,-0.0715,-0.066,-0.0606,-0.0566,-0.0539,-0.0489,-0.0455,-0.0433,-0.0466,-0.0477,-0.0487,-0.0517,-0.0529,-0.0544,-0.0377,-0.0377,-0.0377,0,0,-0.0962,-0.0936,-0.0929,-0.0893,-0.0863,-0.087,-0.0817,-0.0787,-0.0807,-0.0699,-0.0693,-0.0629,-0.0566,-0.0547,-0.0531,-0.0507,-0.0517,-0.0492,-0.0501,-0.0526,-0.0535,-0.0551,-0.0565,-0.038,-0.038,-0.0379,0,0,-0.097,-0.0934,-0.0939,-0.0929,-0.0899,-0.088,-0.0882,-0.0835,-0.0829,-0.0804,-0.0752,-0.0716,-0.0636,-0.0617,-0.0593,-0.0634,-0.0574,-0.0617,-0.0711,-0.0722,-0.0736,-0.0748,-0.0715,-0.0724,-0.0626,-0.0626,-0.0626,0,-0.0979,-0.098,-0.0935,-0.0943,-0.0955,-0.09,-0.0932,-0.091,-0.0861,-0.0871,-0.0824,-0.0758,-0.0682,-0.0697,-0.0712,-0.066,-0.0644,-0.0659,-0.0738,-0.075,-0.076,-0.0724,-0.0732,-0.0632,-0.0631,-0.0631,-0.063,0,-0.1012,-0.1011,-0.1008,-0.1023,-0.1028,-0.1034,-0.1025,-0.1023,-0.1001,-0.0987,-0.0987,-0.0896,-0.0867,-0.0838,-0.0775,-0.0824,-0.0778,-0.0747,-0.0705,-0.0784,-0.0739,-0.0746,-0.064,-0.0638,-0.0636,-0.0635,0,0,-0.1055,-0.1042,-0.1045,-0.1084,-0.1078,-0.1098,-0.1127,-0.116,-0.1195,-0.1145,-0.1186,-0.1118,-0.1068,-0.104,-0.0966,-0.0967,-0.099,-0.0895,-0.0893,-0.0866,-0.0991,-0.0832,-0.0822,-0.0977,-0.0979,-0.0981,-0.092,0,-0.1112,-0.1149,-0.114,-0.1217,-0.1247,-0.1238,-0.1293,-0.1311,-0.1291,-0.1304,-0.1244,-0.1233,-0.1149,-0.1121,-0.1117,-0.1005,-0.1017,-0.1008,-0.0917,-0.0914,-0.0766,-0.0828,-0.0721,-0.0648,-0.0925,-0.0926,-0.0927,0,-0.1177,-0.1191,-0.1261,-0.1342,-0.1363,-0.1412,-0.1498,-0.1549,-0.1545,-0.1511,-0.1489,-0.1414,-0.1381,-0.1299,-0.1219,-0.1216,-0.1135,-0.106,-0.1055,-0.0881,-0.0768,-0.0619,-0.0648,-0.0592,-0.0936,-0.0935,-0.0935,0,-0.1257,-0.1304,-0.1372,-0.1392,-0.1453,-0.1514,-0.1585,-0.1616,-0.1645,-0.1645,-0.16,-0.158,-0.1506,-0.1455,-0.1243,-0.1253,-0.1132,-0.1123,-0.0922,-0.0908,-0.0786,-0.0756,-0.0757,-0.1127,-0.1127,-0.1127,-0.1128,0,-0.1343,-0.1396,-0.1413,-0.1452,-0.159,-0.1618,-0.1743,-0.1786,-0.1779,-0.1767,-0.1724,-0.1639,-0.1543,-0.1417,-0.13,-0.1086,-0.1176,-0.0956,-0.0897,-0.0814,-0.079,-0.0707,-0.0725,-0.1125,-0.1126,-0.1126,-0.1126,0,-0.1408,-0.1417,-0.1497,-0.1569,-0.1626,-0.1733,-0.1838,-0.1868,-0.1874,-0.1832,-0.1817,-0.168,-0.1499,-0.1364,-0.1211,-0.1102,-0.0879,-0.0868,-0.0742,-0.0669,-0.045,-0.0478,-0.0432,-0.0345,-0.0687,-0.0683,-0.0679,0,-0.1428,-0.1465,-0.1581,-0.1649,-0.1689,-0.1823,-0.1885,-0.1927,-0.1892,-0.1802,-0.1733,-0.1575,-0.1338,-0.1061,-0.0894,-0.0696,-0.0683,-0.0504,-0.0522,-0.0436,-0.0426,-0.0458,-0.0392,-0.0398,-0.0393,-0.0388,-0.0385,0,-0.146,-0.1498,-0.1567,-0.17,-0.1785,-0.1862,-0.1922,-0.1871,-0.1833,-0.1693,-0.1446,-0.1267,-0.1022,-0.0706,-0.0496,-0.0396,-0.0435,-0.0404,-0.0377,-0.026,-0.024,-0.0123,-0.0416,-0.0345,-0.0349,-0.0352,-0.0354,-0.0356,-0.148,-0.1536,-0.1625,-0.176,-0.1829,-0.1813,-0.1766,-0.1667,-0.1513,-0.115,-0.1102,-0.066,-0.0485,-0.0148,-0.0112,0.0007,-0.0103,0.0057,0.0001,-0.005,0.0065,-0.0106,0.0077,0.0075,0.0074,0.0073,0.0072,0,-0.1494,-0.1569,-0.1677,-0.1779,-0.178,-0.1824,-0.1705,-0.1498,-0.1142,-0.0781,-0.0423,0.0131,0.0298,0.0341,0.039,0.0411,0.0368,0.0407,0.0334,0.0373,0.0179,0.0226,0.0527,0.0527,0.0527,0.0526,0.0526,0.0526,-0.1514,-0.1614,-0.1668,-0.1696,-0.1707,-0.1527,-0.1371,-0.1016,-0.0674,0.0069,0.0582,0.0903,0.0974,0.0686,0.061,0.0603,0.062,0.0617,0.0604,0.0413,0.0374,0.0337,0.0378,0.0705,0.0705,0.0857,0.0858,0.0859]}],[{"header":{"parameterUnit":"m.s-1","parameterCategory":2,"la1":30.2991,"la2":30.254,"lo1":-89.0895,"lo2":-89.0444,"dy":0.0017,"dx":0.0017,"nx":28,"ny":28,"refTime":"2024-12-18T03:00:00:Z","depth":"2","parameterNumber":2,"parameterNumberName":"U-component_of_CURRENTS"},"data":[0,0,0,0,0,0,0,0,0,0,0,0,0,0,0,0,0,0,0,0,0,0,0,0,0,0,0,0,0,0,0,0,0,0,0,0,0,0,0,0,0,0,0,0,0,0,0,0,0,0,0,0,0,0,0,0,0,0,-0.1643,-0.1642,0,-0.1605,-0.1604,-0.1604,-0.164,-0.1642,-0.1644,-0.1645,-0.1784,-0.1786,-0.1788,0,0,0,0,0,0,0,0,0,0,0,0,0,-0.1577,-0.1578,-0.1643,-0.1642,-0.1642,-0.1605,-0.1604,-0.1603,-0.164,-0.1642,-0.1644,-0.1646,-0.1784,-0.1786,-0.1789,0,0,0,0,0,0,0,0,0,0,0,0,0,-0.1576,-0.1579,-0.1643,-0.1658,-0.1659,-0.1605,-0.1604,-0.1603,-0.1639,-0.1642,-0.1644,-0.1647,-0.1783,-0.1786,-0.1789,-0.1757,0,0,-0.1799,-0.18,0,0,0,0,0,0,0,0,-0.1577,-0.1579,-0.1656,-0.1657,-0.1658,-0.1632,-0.1632,-0.1664,-0.1639,-0.1644,-0.1645,-0.1648,-0.175,-0.1756,-0.1736,-0.1764,-0.177,-0.1799,-0.1801,-0.1802,-0.1803,0,0,0,0,0,0,0,-0.1577,-0.1579,-0.1625,-0.1656,-0.1657,-0.1609,-0.1613,-0.1636,-0.1684,-0.1644,-0.1647,-0.1646,-0.1752,-0.1733,-0.1741,-0.1772,-0.1799,-0.1802,-0.1804,-0.1805,-0.1865,-0.1865,0,0,0,0,0,0,-0.1593,-0.158,-0.1626,-0.1624,-0.1626,-0.1609,-0.1613,-0.1636,-0.168,-0.1689,-0.1644,-0.1648,-0.1726,-0.1737,-0.1746,-0.1755,-0.1802,-0.1805,-0.1807,-0.1866,-0.1865,-0.1865,0,0,0,0,0,0,-0.1593,-0.1599,-0.1628,-0.1602,-0.1603,-0.1609,-0.1633,-0.1634,-0.1628,-0.1679,-0.1691,-0.164,-0.1729,-0.1742,-0.1823,-0.176,-0.1807,-0.1809,-0.1866,-0.1866,-0.1865,-0.1747,0,0,0,0,0,0,-0.1591,-0.1599,-0.1619,-0.1604,-0.1605,-0.1604,-0.163,-0.1631,-0.1624,-0.1629,-0.1679,-0.1693,-0.1732,-0.1818,-0.1826,-0.1765,-0.1812,-0.1866,-0.1866,-0.1865,-0.1751,-0.1743,-0.1735,0,0,0,0,0,-0.1589,-0.1621,-0.1621,-0.1626,-0.1634,-0.1603,-0.1598,-0.1607,-0.1622,-0.1612,-0.1686,-0.1693,-0.1818,-0.1823,-0.1831,-0.1769,-0.1867,-0.1866,-0.1865,-0.1755,-0.1744,-0.1735,0,0,0,0,0,0,-0.1629,-0.1627,-0.1627,-0.1665,-0.1634,-0.1611,-0.1612,-0.1601,-0.1638,-0.1663,-0.1714,-0.1734,-0.1766,-0.1803,-0.1806,-0.1789,-0.1831,-0.1832,-0.1744,-0.1734,-0.1726,-0.1722,-0.1815,0,0,0,0,0,-0.1637,-0.1651,-0.163,-0.1658,-0.1645,-0.1619,-0.1609,-0.1603,-0.163,-0.1645,-0.1703,-0.1751,-0.1759,-0.1785,-0.1819,-0.1826,-0.184,-0.1788,-0.1779,-0.1772,-0.1777,-0.1765,-0.1755,-0.1863,-0.1863,-0.1863,0,0,-0.1643,-0.1662,-0.1658,-0.1662,-0.1645,-0.1616,-0.162,-0.1603,-0.1584,-0.1658,-0.1703,-0.1733,-0.1761,-0.1769,-0.1781,-0.18,-0.1744,-0.1771,-0.1764,-0.1774,-0.1763,-0.1752,-0.1743,-0.1862,-0.1862,-0.1863,0,0,-0.1649,-0.1691,-0.1676,-0.1662,-0.1641,-0.1623,-0.1616,-0.1604,-0.1606,-0.1627,-0.1668,-0.1682,-0.1732,-0.1726,-0.1722,-0.1692,-0.1703,-0.1692,-0.1641,-0.1627,-0.1618,-0.161,-0.1583,-0.1574,-0.1684,-0.1684,-0.1684,0,-0.1649,-0.1659,-0.1664,-0.1653,-0.1645,-0.1626,-0.1594,-0.1577,-0.1604,-0.1616,-0.1643,-0.1679,-0.1691,-0.166,-0.1641,-0.1663,-0.1675,-0.1665,-0.1613,-0.1606,-0.1599,-0.1574,-0.1565,-0.1678,-0.1679,-0.1679,-0.168,0,-0.162,-0.1638,-0.1638,-0.1619,-0.1607,-0.1586,-0.1562,-0.1571,-0.1577,-0.1568,-0.1572,-0.1593,-0.1616,-0.1583,-0.1595,-0.154,-0.1568,-0.16,-0.1627,-0.158,-0.1558,-0.155,-0.167,-0.1672,-0.1674,-0.1675,0,0,-0.1573,-0.1602,-0.1599,-0.16,-0.1592,-0.1575,-0.1561,-0.1531,-0.1529,-0.1534,-0.1528,-0.149,-0.1512,-0.1511,-0.1512,-0.148,-0.1403,-0.1517,-0.1519,-0.1472,-0.1374,-0.1278,-0.1262,-0.1436,-0.1435,-0.1434,-0.1365,0,-0.1531,-0.1528,-0.1547,-0.1529,-0.1517,-0.1529,-0.1521,-0.1507,-0.1506,-0.1516,-0.1482,-0.1484,-0.1476,-0.1476,-0.1438,-0.1433,-0.1386,-0.1419,-0.1445,-0.1446,-0.135,-0.125,-0.1142,-0.1063,-0.1358,-0.1357,-0.1356,0,-0.1466,-0.1489,-0.147,-0.1507,-0.15,-0.149,-0.1496,-0.1484,-0.1482,-0.1486,-0.1478,-0.1484,-0.1431,-0.1435,-0.1374,-0.1408,-0.1377,-0.1358,-0.1356,-0.1308,-0.1336,-0.1167,-0.1039,-0.1344,-0.1345,-0.1346,-0.1347,0,-0.1414,-0.143,-0.1429,-0.1435,-0.1461,-0.1465,-0.1474,-0.1479,-0.1471,-0.1475,-0.1472,-0.1451,-0.1423,-0.1398,-0.1339,-0.1371,-0.1272,-0.1316,-0.1194,-0.1188,-0.112,-0.1109,-0.1256,-0.1256,-0.1256,-0.1256,-0.1256,0,-0.1365,-0.1363,-0.1411,-0.1411,-0.1412,-0.1444,-0.1439,-0.1451,-0.1456,-0.1434,-0.1457,-0.1416,-0.1414,-0.1362,-0.1332,-0.1217,-0.1263,-0.1155,-0.1151,-0.1073,-0.1059,-0.1345,-0.1356,-0.1253,-0.1254,-0.1254,-0.1255,0,-0.1301,-0.1332,-0.1335,-0.1376,-0.1386,-0.1386,-0.1412,-0.1403,-0.1427,-0.1396,-0.1394,-0.1377,-0.1298,-0.1272,-0.121,-0.1176,-0.1104,-0.1053,-0.0947,-0.0929,-0.1036,-0.1043,-0.0918,-0.0914,-0.0911,-0.0908,-0.0905,0,-0.127,-0.1266,-0.1301,-0.1301,-0.1319,-0.1333,-0.1333,-0.1372,-0.1355,-0.1347,-0.1309,-0.1251,-0.1157,-0.1031,-0.0957,-0.0867,-0.0959,-0.0743,-0.0761,-0.0986,-0.0996,-0.1008,-0.1019,-0.0625,-0.062,-0.0616,-0.0613,0,-0.1211,-0.1222,-0.1229,-0.1227,-0.123,-0.1227,-0.123,-0.1215,-0.124,-0.1217,-0.1137,-0.107,-0.0932,-0.0775,-0.0676,-0.0617,-0.0755,-0.066,-0.0912,-0.0723,-0.0702,-0.0715,-0.0736,-0.058,-0.0583,-0.0585,-0.0587,-0.0589,-0.1159,-0.1145,-0.1146,-0.1135,-0.1138,-0.1097,-0.1042,-0.1055,-0.1011,-0.0944,-0.0952,-0.0827,-0.0778,-0.0539,-0.0454,-0.0386,-0.0462,-0.0462,-0.0477,-0.0496,-0.0469,-0.0443,-0.0267,-0.0268,-0.027,-0.0271,-0.0272,0,-0.1083,-0.1065,-0.1051,-0.1011,-0.0953,-0.0989,-0.0943,-0.0867,-0.0781,-0.0756,-0.0681,-0.0536,-0.0411,-0.036,-0.0189,-0.0143,-0.0171,-0.0136,-0.02,-0.0231,-0.0259,-0.0226,0.0044,0.0045,0.0045,0.0045,0,0,-0.1034,-0.0985,-0.0971,-0.0836,-0.0795,-0.0666,-0.0609,-0.0542,-0.049,-0.0396,-0.0345,-0.0387,-0.0343,-0.02,-0.0121,-0.001,-0.0122,0.0025,-0.0218,-0.0323,-0.0351,-0.0421,-0.0399,0,0,0,0,0]},{"header":{"parameterUnit":"m.s-1","parameterCategory":2,"la1":30.2991,"la2":30.254,"lo1":-89.0895,"lo2":-89.0444,"dy":0.0017,"dx":0.0017,"nx":28,"ny":28,"refTime":"2024-12-18T03:00:00:Z","depth":"2","parameterNumber":3,"parameterNumberName":"V-component_of_CURRENTS"},"data":[0,0,0,0,0,0,0,0,0,0,0,0,0,0,0,0,0,0,0,0,0,0,0,0,0,0,0,0,0,0,0,0,0,0,0,0,0,0,0,0,0,0,0,0,0,0,0,0,0,0,0,0,0,0,0,0,0,0,-0.037,-0.0369,0,-0.0342,-0.0341,-0.0341,-0.0287,-0.0286,-0.0285,-0.0284,-0.0159,-0.0157,-0.0154,0,0,0,0,0,0,0,0,0,0,0,0,0,-0.0382,-0.0382,-0.037,-0.0369,-0.0369,-0.0342,-0.0341,-0.0341,-0.0287,-0.0286,-0.0285,-0.0284,-0.016,-0.0157,-0.0154,0,0,0,0,0,0,0,0,0,0,0,0,0,-0.0368,-0.0382,-0.037,-0.0339,-0.0336,-0.0342,-0.0341,-0.0341,-0.0288,-0.0286,-0.0285,-0.0283,-0.0161,-0.0157,-0.0154,-0.0164,0,0,-0.0143,-0.0141,0,0,0,0,0,0,0,0,-0.0368,-0.0367,-0.0344,-0.0341,-0.0338,-0.0316,-0.03,-0.0277,-0.0288,-0.0306,-0.0284,-0.0282,-0.0204,-0.0197,-0.0196,-0.0158,-0.0152,-0.0143,-0.0141,-0.0139,-0.0138,0,0,0,0,0,0,0,-0.0369,-0.0368,-0.0358,-0.0344,-0.034,-0.0328,-0.0324,-0.0295,-0.0262,-0.0304,-0.03,-0.0298,-0.0201,-0.02,-0.0193,-0.015,-0.0143,-0.014,-0.0137,-0.0136,-0.0035,-0.0034,0,0,0,0,0,0,-0.0374,-0.0369,-0.0359,-0.0358,-0.0349,-0.0329,-0.0325,-0.0325,-0.0265,-0.0255,-0.0299,-0.0295,-0.0207,-0.0197,-0.0188,-0.0143,-0.0139,-0.0136,-0.0134,-0.0035,-0.0035,-0.0034,0,0,0,0,0,0,-0.0375,-0.0374,-0.036,-0.0362,-0.036,-0.0331,-0.0331,-0.0325,-0.0316,-0.0262,-0.0249,-0.0295,-0.0205,-0.0193,-0.0145,-0.0139,-0.0134,-0.0131,-0.0036,-0.0035,-0.0034,-0.0086,0,0,0,0,0,0,-0.0375,-0.0374,-0.0383,-0.0363,-0.036,-0.0355,-0.0332,-0.0326,-0.0318,-0.0312,-0.0255,-0.0242,-0.0203,-0.015,-0.0141,-0.0134,-0.0128,-0.0037,-0.0036,-0.0035,-0.0085,-0.0087,-0.0088,0,0,0,0,0,-0.0376,-0.0388,-0.0384,-0.0383,-0.0371,-0.0355,-0.0352,-0.0326,-0.0319,-0.0314,-0.027,-0.0243,-0.0137,-0.0148,-0.0137,-0.0128,-0.0037,-0.0036,-0.0035,-0.0084,-0.0086,-0.0088,0,0,0,0,0,0,-0.04,-0.0383,-0.0378,-0.0386,-0.0369,-0.0345,-0.0344,-0.0333,-0.03,-0.0292,-0.0241,-0.0225,-0.0181,-0.0148,-0.0161,-0.0094,-0.0081,-0.0078,-0.0122,-0.0124,-0.0126,-0.0126,-0.0125,0,0,0,0,0,-0.0412,-0.0416,-0.0394,-0.0403,-0.0394,-0.0374,-0.0369,-0.0351,-0.0319,-0.0304,-0.0262,-0.0214,-0.0172,-0.0142,-0.0102,-0.0071,-0.0037,-0.0055,-0.0057,-0.0059,-0.005,-0.0006,-0.0004,-0.003,-0.003,-0.003,0,0,-0.0422,-0.0419,-0.0418,-0.0409,-0.0396,-0.0379,-0.0366,-0.0356,-0.0339,-0.0295,-0.0257,-0.0223,-0.0166,-0.0125,-0.0102,-0.0093,-0.0034,-0.0057,-0.0059,-0.0049,-0.0005,-0.0002,0.0,-0.0029,-0.0029,-0.0029,0,0,-0.0439,-0.0441,-0.0442,-0.043,-0.0415,-0.0395,-0.0393,-0.0365,-0.0345,-0.0315,-0.0274,-0.0235,-0.0175,-0.0129,-0.01,-0.0088,-0.005,-0.0076,-0.0081,-0.0039,-0.0037,-0.0034,0.0005,0.0012,-0.0072,-0.0072,-0.0072,0,-0.0454,-0.0453,-0.0441,-0.0436,-0.0425,-0.0401,-0.0389,-0.0369,-0.0328,-0.0309,-0.0301,-0.0216,-0.0175,-0.0117,-0.011,-0.0093,-0.0064,-0.0082,-0.0043,-0.004,-0.0036,0.0004,0.0012,-0.0075,-0.0074,-0.0074,-0.0074,0,-0.046,-0.0461,-0.0461,-0.0443,-0.0429,-0.042,-0.0384,-0.0366,-0.0346,-0.032,-0.0271,-0.0222,-0.0167,-0.0153,-0.0127,-0.008,-0.0066,-0.0058,-0.0043,-0.0037,0.0005,0.0014,-0.0078,-0.0077,-0.0076,-0.0076,0,0,-0.0483,-0.0468,-0.0468,-0.0463,-0.0433,-0.0422,-0.0391,-0.0353,-0.0334,-0.0296,-0.0264,-0.0204,-0.0184,-0.0149,-0.0115,-0.0079,-0.0039,-0.0061,-0.0057,-0.0032,0.0055,0.0059,0.007,-0.0028,-0.0027,-0.0026,0.0072,0,-0.049,-0.0491,-0.0474,-0.0461,-0.0451,-0.042,-0.0395,-0.036,-0.0326,-0.0287,-0.0239,-0.0196,-0.0179,-0.0159,-0.012,-0.0056,-0.0016,-0.0065,0.0055,0.0059,0.0054,0.008,0.0065,0.0151,0.0081,0.0082,0.0083,0,-0.0493,-0.0496,-0.0493,-0.0471,-0.0463,-0.0451,-0.041,-0.0384,-0.0323,-0.0297,-0.0248,-0.0207,-0.0139,-0.0137,-0.0024,-0.0057,-0.0003,0.0041,0.0046,0.0077,0.0081,0.0137,0.017,0.0099,0.0097,0.0096,0.0095,0,-0.0514,-0.0503,-0.0506,-0.05,-0.0472,-0.0465,-0.0444,-0.0391,-0.0362,-0.0303,-0.0271,-0.0197,-0.0147,-0.0077,0.0014,-0.0001,0.0135,0.0126,0.0185,0.0186,0.0213,0.0214,0.0207,0.0207,0.0207,0.0207,0.0206,0,-0.0527,-0.0527,-0.0522,-0.0526,-0.0526,-0.0493,-0.0476,-0.0446,-0.0386,-0.0335,-0.0281,-0.0214,-0.0129,-0.0039,0.0025,0.0139,0.0149,0.0197,0.0216,0.0194,0.0192,0.0178,0.0174,0.021,0.021,0.0209,0.0208,0,-0.0549,-0.0545,-0.0554,-0.0544,-0.0541,-0.0546,-0.0506,-0.0484,-0.0426,-0.0355,-0.0333,-0.0214,-0.0091,-0.0006,0.0125,0.0165,0.026,0.0296,0.0261,0.0274,0.0278,0.0269,0.0371,0.0373,0.0373,0.0374,0.0375,0,-0.0561,-0.057,-0.0583,-0.0595,-0.0597,-0.0592,-0.058,-0.0521,-0.0479,-0.0337,-0.0295,-0.0161,-0.0038,0.014,0.0221,0.0332,0.0322,0.0369,0.0334,0.0289,0.0297,0.0288,0.0278,0.0353,0.0353,0.0354,0.0354,0,-0.0586,-0.0597,-0.061,-0.0641,-0.0648,-0.0633,-0.0601,-0.057,-0.047,-0.038,-0.021,-0.0097,0.0082,0.0208,0.0314,0.0372,0.0342,0.0379,0.0366,0.0302,0.0277,0.0283,0.0274,0.0357,0.0357,0.0357,0.0356,0.0356,-0.0608,-0.0632,-0.0655,-0.0681,-0.0691,-0.0665,-0.0634,-0.0557,-0.0464,-0.0284,-0.0163,0.0025,0.0099,0.0271,0.034,0.0396,0.0407,0.0406,0.0403,0.04,0.0369,0.0345,0.0433,0.0434,0.0434,0.0434,0.0434,0,-0.0626,-0.0649,-0.0683,-0.0699,-0.0704,-0.0694,-0.0635,-0.0565,-0.0434,-0.0242,-0.0052,0.0069,0.0186,0.0266,0.0363,0.0411,0.0393,0.0408,0.037,0.0368,0.0366,0.0331,0.0387,0.0386,0.0386,0.0386,0,0,-0.0635,-0.0672,-0.0692,-0.0707,-0.0705,-0.0658,-0.0617,-0.0497,-0.0359,-0.014,0.001,0.0141,0.0217,0.0244,0.0304,0.0364,0.0354,0.0364,0.0403,0.0353,0.035,0.0371,0.0316,0,0,0,0,0]}],[{"header":{"parameterUnit":"m.s-1","parameterCategory":2,"la1":30.2991,"la2":30.254,"lo1":-89.0895,"lo2":-89.0444,"dy":0.0017,"dx":0.0017,"nx":28,"ny":28,"refTime":"2024-12-18T03:00:00:Z","depth":"4","parameterNumber":2,"parameterNumberName":"U-component_of_CURRENTS"},"data":[0,0,0,0,0,0,0,0,0,0,0,0,0,0,0,0,0,0,0,0,0,0,0,0,0,0,0,0,0,0,0,0,0,0,0,0,0,0,0,0,0,0,0,0,0,0,0,0,0,0,0,0,0,0,0,0,0,0,-0.0986,-0.0986,0,-0.1016,-0.1016,-0.1016,-0.1037,-0.1037,-0.1038,-0.1038,-0.1084,-0.1085,-0.1086,0,0,0,0,0,0,0,0,0,0,0,0,0,-0.093,-0.0931,-0.0986,-0.0986,-0.0987,-0.1016,-0.1016,-0.1016,-0.1037,-0.1037,-0.1038,-0.1038,-0.1084,-0.1085,-0.1087,0,0,0,0,0,0,0,0,0,0,0,0,0,-0.0956,-0.0931,-0.0986,-0.1,-0.1002,-0.1015,-0.1016,-0.1016,-0.1037,-0.1037,-0.1038,-0.1038,-0.1084,-0.1085,-0.1087,-0.1093,0,0,-0.1092,-0.1093,0,0,0,0,0,0,0,0,-0.0955,-0.0959,-0.0998,-0.0999,-0.1001,-0.1023,-0.1013,-0.1043,-0.1037,-0.1024,-0.1038,-0.1038,-0.1065,-0.1068,-0.1073,-0.1095,-0.1097,-0.1092,-0.1093,-0.1094,-0.1094,0,0,0,0,0,0,0,-0.0953,-0.0957,-0.0998,-0.0998,-0.1,-0.0999,-0.1003,-0.1019,-0.1043,-0.1025,-0.1027,-0.103,-0.1066,-0.1072,-0.1075,-0.1098,-0.1092,-0.1093,-0.1094,-0.1095,-0.1116,-0.1116,0,0,0,0,0,0,-0.095,-0.0956,-0.0997,-0.0999,-0.0978,-0.1,-0.1005,-0.1016,-0.1043,-0.1047,-0.1029,-0.103,-0.1069,-0.1073,-0.1076,-0.111,-0.1094,-0.1095,-0.1096,-0.1117,-0.1116,-0.1116,0,0,0,0,0,0,-0.0949,-0.0954,-0.0996,-0.0977,-0.0982,-0.1001,-0.1013,-0.1016,-0.1037,-0.1046,-0.105,-0.1049,-0.1069,-0.1074,-0.1089,-0.1111,-0.1096,-0.1098,-0.1117,-0.1116,-0.1116,-0.1162,0,0,0,0,0,0,-0.0947,-0.0953,-0.0968,-0.0977,-0.0983,-0.1006,-0.1013,-0.1017,-0.1038,-0.104,-0.1064,-0.1067,-0.107,-0.1086,-0.109,-0.1113,-0.1099,-0.1118,-0.1117,-0.1116,-0.1161,-0.1163,-0.1164,0,0,0,0,0,-0.0945,-0.0961,-0.0969,-0.0974,-0.1001,-0.1006,-0.1009,-0.1022,-0.1039,-0.1044,-0.1056,-0.1067,-0.1083,-0.1087,-0.1092,-0.1116,-0.1118,-0.1117,-0.1116,-0.116,-0.1162,-0.1164,0,0,0,0,0,0,-0.095,-0.0965,-0.0974,-0.0996,-0.1002,-0.1009,-0.1024,-0.1033,-0.1048,-0.1058,-0.1068,-0.1071,-0.1087,-0.1089,-0.1093,-0.1114,-0.1101,-0.1101,-0.1132,-0.1134,-0.1136,-0.1134,-0.11,0,0,0,0,0,-0.0956,-0.0969,-0.098,-0.0997,-0.1006,-0.1019,-0.1029,-0.1035,-0.1046,-0.1055,-0.1069,-0.108,-0.1085,-0.11,-0.1098,-0.1122,-0.1103,-0.1135,-0.1137,-0.1139,-0.1137,-0.1123,-0.1124,-0.1112,-0.1112,-0.1112,0,0,-0.0966,-0.0973,-0.0984,-0.0998,-0.1011,-0.1025,-0.1026,-0.1043,-0.1057,-0.1058,-0.1088,-0.1086,-0.1087,-0.1103,-0.1112,-0.1114,-0.1129,-0.1138,-0.114,-0.1137,-0.1122,-0.1124,-0.1125,-0.1112,-0.1112,-0.1112,0,0,-0.0976,-0.0997,-0.1009,-0.1016,-0.103,-0.1037,-0.1046,-0.1061,-0.1074,-0.1093,-0.1092,-0.1101,-0.1121,-0.1122,-0.1126,-0.1137,-0.113,-0.1141,-0.1167,-0.1154,-0.1156,-0.1157,-0.1125,-0.1123,-0.1154,-0.1154,-0.1154,0,-0.0989,-0.1004,-0.1012,-0.1022,-0.1035,-0.1047,-0.1064,-0.1077,-0.1093,-0.1103,-0.1106,-0.1123,-0.1128,-0.1145,-0.1147,-0.1145,-0.1128,-0.1167,-0.1159,-0.116,-0.116,-0.1127,-0.1124,-0.1156,-0.1155,-0.1155,-0.1155,0,-0.0995,-0.1019,-0.1028,-0.1048,-0.106,-0.1075,-0.1092,-0.111,-0.113,-0.1138,-0.1156,-0.1154,-0.1163,-0.1169,-0.1168,-0.1176,-0.1159,-0.1157,-0.116,-0.1164,-0.1129,-0.1125,-0.1159,-0.1158,-0.1157,-0.1157,0,0,-0.0993,-0.1028,-0.1034,-0.1051,-0.1077,-0.1086,-0.1117,-0.1139,-0.1157,-0.1175,-0.119,-0.1204,-0.1202,-0.1203,-0.1202,-0.1201,-0.1189,-0.1188,-0.1187,-0.1168,-0.1147,-0.1049,-0.1035,-0.1193,-0.1193,-0.1193,-0.112,0,-0.0999,-0.1026,-0.1041,-0.1076,-0.1095,-0.1119,-0.1142,-0.1163,-0.118,-0.1194,-0.1203,-0.1209,-0.1217,-0.1219,-0.1222,-0.119,-0.1182,-0.1208,-0.1136,-0.1133,-0.1055,-0.1029,-0.1192,-0.1117,-0.1116,-0.1115,-0.1115,0,-0.0991,-0.1014,-0.1049,-0.1092,-0.1104,-0.1126,-0.1163,-0.1182,-0.1204,-0.1215,-0.123,-0.1226,-0.1229,-0.1226,-0.1195,-0.1213,-0.1183,-0.116,-0.1157,-0.1047,-0.1027,-0.1111,-0.1107,-0.1108,-0.1108,-0.1109,-0.1109,0,-0.0968,-0.1017,-0.1047,-0.1061,-0.111,-0.1135,-0.1161,-0.1191,-0.12,-0.1222,-0.1218,-0.123,-0.1214,-0.12,-0.1159,-0.1178,-0.1103,-0.1122,-0.1004,-0.0996,-0.1091,-0.1091,-0.109,-0.109,-0.109,-0.1091,-0.1091,0,-0.0952,-0.0979,-0.1043,-0.1058,-0.1091,-0.1129,-0.1157,-0.1182,-0.1202,-0.1189,-0.1223,-0.1193,-0.1205,-0.1165,-0.1146,-0.1047,-0.1092,-0.099,-0.0967,-0.1109,-0.1112,-0.1087,-0.1088,-0.1088,-0.1088,-0.1089,-0.1089,0,-0.0914,-0.0958,-0.0993,-0.1058,-0.1079,-0.11,-0.1148,-0.1152,-0.1184,-0.1162,-0.1163,-0.1155,-0.1088,-0.108,-0.1029,-0.0999,-0.0938,-0.0893,-0.1024,-0.1012,-0.0845,-0.0849,-0.0754,-0.075,-0.0747,-0.0744,-0.0741,0,-0.0894,-0.0912,-0.0982,-0.0997,-0.1029,-0.107,-0.1083,-0.1134,-0.1123,-0.1114,-0.1078,-0.1031,-0.101,-0.0858,-0.0872,-0.0811,-0.0806,-0.0782,-0.0835,-0.0821,-0.0809,-0.0819,-0.0827,-0.0736,-0.0735,-0.0734,-0.0733,0,-0.0855,-0.0888,-0.0916,-0.0941,-0.0966,-0.0984,-0.1004,-0.0989,-0.1012,-0.1056,-0.0955,-0.0904,-0.0813,-0.0769,-0.0718,-0.0688,-0.0809,-0.0746,-0.0754,-0.0804,-0.0798,-0.0791,-0.0804,-0.0721,-0.0722,-0.0724,-0.0724,0,-0.0822,-0.0826,-0.0856,-0.0867,-0.0891,-0.0865,-0.0899,-0.0868,-0.0866,-0.0867,-0.0824,-0.0779,-0.0783,-0.07,-0.0657,-0.0611,-0.061,-0.0616,-0.0631,-0.0644,-0.0643,-0.0621,-0.0452,0,0,0,0,0,-0.0783,-0.0769,-0.0774,-0.0767,-0.0781,-0.0782,-0.0819,-0.0847,-0.0875,-0.0775,-0.0798,-0.071,-0.0623,-0.061,-0.0535,-0.0602,-0.0615,-0.0514,-0.0633,-0.0653,-0.0667,-0.0676,0,0,0,0,0,0,-0.0751,-0.0757,-0.0745,-0.0672,-0.0639,-0.063,-0.0645,-0.067,-0.0626,-0.0665,-0.0617,-0.0657,-0.0581,-0.063,-0.0509,-0.0506,-0.0565,-0.0507,-0.0505,-0.0645,-0.0658,-0.0669,-0.0683,0,0,0,0,0]},{"header":{"parameterUnit":"m.s-1","parameterCategory":2,"la1":30.2991,"la2":30.254,"lo1":-89.0895,"lo2":-89.0444,"dy":0.0017,"dx":0.0017,"nx":28,"ny":28,"refTime":"2024-12-18T03:00:00:Z","depth":"4","parameterNumber":3,"parameterNumberName":"V-component_of_CURRENTS"},"data":[0,0,0,0,0,0,0,0,0,0,0,0,0,0,0,0,0,0,0,0,0,0,0,0,0,0,0,0,0,0,0,0,0,0,0,0,0,0,0,0,0,0,0,0,0,0,0,0,0,0,0,0,0,0,0,0,0,0,-0.0289,-0.0289,0,-0.0285,-0.0285,-0.0285,-0.0275,-0.0274,-0.0274,-0.0274,-0.0258,-0.0258,-0.0257,0,0,0,0,0,0,0,0,0,0,0,0,0,-0.0277,-0.0278,-0.0289,-0.0289,-0.0289,-0.0285,-0.0285,-0.0285,-0.0275,-0.0274,-0.0274,-0.0274,-0.0258,-0.0258,-0.0257,0,0,0,0,0,0,0,0,0,0,0,0,0,-0.0279,-0.0278,-0.0289,-0.0284,-0.0283,-0.0285,-0.0285,-0.0285,-0.0275,-0.0274,-0.0274,-0.0274,-0.0258,-0.0258,-0.0257,-0.0262,0,0,-0.0256,-0.0256,0,0,0,0,0,0,0,0,-0.0279,-0.0279,-0.0284,-0.0284,-0.0283,-0.028,-0.0275,-0.0277,-0.0275,-0.0278,-0.0274,-0.0274,-0.0265,-0.0264,-0.0264,-0.0261,-0.026,-0.0256,-0.0256,-0.0256,-0.0256,0,0,0,0,0,0,0,-0.0279,-0.0279,-0.0288,-0.0284,-0.0284,-0.0277,-0.0277,-0.0275,-0.0273,-0.0278,-0.0277,-0.0276,-0.0264,-0.0264,-0.0263,-0.026,-0.0256,-0.0256,-0.0256,-0.0256,-0.0241,-0.0241,0,0,0,0,0,0,-0.028,-0.0279,-0.0288,-0.0287,-0.028,-0.0278,-0.0278,-0.0281,-0.0273,-0.0272,-0.0277,-0.0276,-0.0265,-0.0264,-0.0263,-0.0238,-0.0256,-0.0256,-0.0255,-0.0242,-0.0241,-0.0241,0,0,0,0,0,0,-0.028,-0.0281,-0.0288,-0.0283,-0.0283,-0.0279,-0.0283,-0.0281,-0.0284,-0.0273,-0.0271,-0.028,-0.0264,-0.0263,-0.0259,-0.0239,-0.0255,-0.0255,-0.0242,-0.0241,-0.0241,-0.0209,0,0,0,0,0,0,-0.028,-0.0281,-0.029,-0.0283,-0.0284,-0.0288,-0.0283,-0.0282,-0.0284,-0.0283,-0.0275,-0.0273,-0.0264,-0.026,-0.0259,-0.0239,-0.0255,-0.0242,-0.0242,-0.0241,-0.021,-0.0207,-0.0205,0,0,0,0,0,-0.028,-0.0288,-0.0291,-0.0292,-0.0294,-0.0288,-0.0288,-0.0283,-0.0285,-0.0284,-0.0279,-0.0273,-0.0257,-0.026,-0.0259,-0.0238,-0.0242,-0.0242,-0.0241,-0.0211,-0.0208,-0.0205,0,0,0,0,0,0,-0.0288,-0.0288,-0.0291,-0.03,-0.0295,-0.0286,-0.0289,-0.0287,-0.0284,-0.0286,-0.0276,-0.0273,-0.0262,-0.0261,-0.0265,-0.0234,-0.0247,-0.0246,-0.0224,-0.0221,-0.0219,-0.0213,-0.0255,0,0,0,0,0,-0.0295,-0.0302,-0.0297,-0.0306,-0.0304,-0.0299,-0.0299,-0.0296,-0.029,-0.0289,-0.028,-0.0272,-0.026,-0.0251,-0.0246,-0.0232,-0.0217,-0.0218,-0.0216,-0.0213,-0.0209,-0.0163,-0.0155,-0.024,-0.024,-0.024,0,0,-0.0299,-0.0302,-0.0306,-0.0308,-0.0305,-0.0297,-0.0298,-0.0298,-0.0287,-0.0288,-0.0273,-0.0269,-0.0258,-0.0238,-0.0232,-0.0233,-0.0183,-0.0213,-0.0211,-0.0207,-0.0162,-0.0153,-0.0146,-0.024,-0.024,-0.024,0,0,-0.0305,-0.0315,-0.0318,-0.0314,-0.0313,-0.0305,-0.0306,-0.0297,-0.029,-0.0282,-0.0273,-0.0253,-0.0247,-0.0217,-0.0206,-0.019,-0.0178,-0.0195,-0.0167,-0.0123,-0.0115,-0.0108,-0.008,-0.0071,-0.0186,-0.0186,-0.0186,0,-0.0313,-0.0315,-0.0318,-0.0315,-0.0309,-0.0307,-0.03,-0.029,-0.028,-0.0266,-0.0276,-0.024,-0.023,-0.0184,-0.0176,-0.018,-0.0166,-0.0176,-0.0117,-0.011,-0.0103,-0.0076,-0.0066,-0.0184,-0.0184,-0.0184,-0.0185,0,-0.0313,-0.0316,-0.0316,-0.031,-0.0303,-0.0299,-0.0282,-0.0273,-0.0268,-0.0251,-0.022,-0.0203,-0.0177,-0.0167,-0.0167,-0.011,-0.012,-0.0123,-0.012,-0.0092,-0.0067,-0.0057,-0.0182,-0.0182,-0.0183,-0.0183,0,0,-0.0328,-0.0318,-0.032,-0.0314,-0.0301,-0.0294,-0.0271,-0.0244,-0.0225,-0.0208,-0.0173,-0.0141,-0.0132,-0.0119,-0.0106,-0.0063,-0.0002,-0.0074,-0.0073,-0.0039,0.0084,0.0052,0.0059,0.0004,0.0006,0.0008,0.0082,0,-0.0328,-0.0325,-0.0315,-0.0302,-0.0294,-0.0277,-0.0253,-0.0228,-0.0208,-0.0174,-0.0138,-0.0112,-0.0112,-0.01,-0.0054,-0.0023,0.0025,-0.0023,0.0044,0.0046,0.0022,0.007,0.0014,0.0089,0.0091,0.0093,0.0094,0,-0.033,-0.0327,-0.0321,-0.0295,-0.0289,-0.028,-0.0243,-0.0222,-0.017,-0.0153,-0.011,-0.009,-0.0027,-0.0038,0.0054,0.002,0.0056,0.0084,0.0088,0.0054,0.0033,0.0055,0.0112,0.011,0.0109,0.0108,0.0107,0,-0.0342,-0.0327,-0.0325,-0.0319,-0.0291,-0.0282,-0.0264,-0.0219,-0.0198,-0.0141,-0.0121,-0.005,-0.002,0.0042,0.0089,0.0077,0.0183,0.0176,0.0188,0.0186,0.0177,0.0169,0.0257,0.0257,0.0256,0.0256,0.0256,0,-0.0345,-0.0342,-0.0336,-0.0336,-0.0329,-0.0299,-0.0281,-0.0252,-0.0202,-0.017,-0.0117,-0.0078,0.0001,0.0062,0.0108,0.0173,0.0203,0.0206,0.0212,0.0186,0.0178,0.0184,0.0175,0.0259,0.0258,0.0258,0.0257,0,-0.0359,-0.0355,-0.0357,-0.0342,-0.0341,-0.034,-0.0312,-0.0293,-0.0241,-0.0198,-0.0181,-0.009,-0.0009,0.0063,0.0166,0.019,0.0257,0.0274,0.0237,0.0236,0.0228,0.0219,0.0308,0.0308,0.0308,0.0308,0.0307,0,-0.0363,-0.037,-0.0381,-0.0394,-0.0394,-0.0387,-0.0382,-0.033,-0.0303,-0.0207,-0.0184,-0.0092,-0.0032,0.0092,0.0166,0.0263,0.0267,0.0298,0.0275,0.0241,0.0238,0.023,0.0221,0.0307,0.0307,0.0307,0.0307,0,-0.0375,-0.0392,-0.04,-0.0431,-0.0443,-0.0439,-0.042,-0.04,-0.0326,-0.0282,-0.0185,-0.0104,-0.0009,0.0087,0.0158,0.0226,0.0276,0.0296,0.0297,0.0275,0.024,0.0236,0.0228,0.0306,0.0306,0.0306,0.0306,0,-0.0394,-0.0413,-0.0438,-0.046,-0.0483,-0.0479,-0.0461,-0.0412,-0.0371,-0.0257,-0.0228,-0.0109,-0.0033,0.007,0.0138,0.0197,0.0211,0.0218,0.0223,0.0225,0.0169,0.011,0.0156,0,0,0,0,0,-0.0405,-0.0429,-0.0458,-0.048,-0.0503,-0.0507,-0.048,-0.0448,-0.0378,-0.0321,-0.0268,-0.0178,-0.0047,0.0022,0.0076,0.0122,0.021,0.0185,0.0216,0.0301,0.0302,0.0246,0,0,0,0,0,0,-0.0415,-0.0448,-0.0462,-0.0494,-0.0509,-0.0518,-0.0503,-0.0452,-0.0404,-0.0329,-0.0258,-0.0188,-0.0064,-0.0088,0.0068,0.0092,0.0113,0.0258,0.0259,0.03,0.0301,0.0302,0.0245,0,0,0,0,0]}]]